Tracking 21476 objects as of 29-Sep-2020
HD Live streaming from Space Station
objects crossing your sky now

ARIANE 5 R/B

Track ARIANE 5 R/B now!


NORAD ID: 36746
Int'l Code: 2010-032C
Perigee: 279.8 km
Apogee: 33,541.2 km
Inclination: 1.5 °
Period: 589.2 minutes
Semi major axis: 23281 km
RCS: 22.3476 m2 (large)
Launch date: June 26, 2010
Source: France (FR)
Launch site: FRENCH GUIANA (FRGUI)

Note: This is a ROCKET BODY
aabbcc
Your satellite tracking list
Your tracking list is empty




NASA's NSSDC Master Catalog

Two Line Element Set (TLE):
1 36746U 10032C   20272.61929273 +.00000417 +00000-0 +16961-3 0  9992
2 36746 001.5148 264.8835 7143295 168.2362 226.5098 02.44391196089123
Source of the keplerian elements: AFSPC